2016-04-07 00:05:35 r, 20.03m,0000000001Hz,0000557865c,0000001.211s, 013.8C,00002191
2016-04-07 00:15:34 r, 20.03m,0000000001Hz,0000557860c,0000001.211s, 013.8C,00002191
2016-04-07 00:25:34 r, 19.90m,0000000001Hz,0000494629c,0000001.073s, 013.8C,00002191
2016-04-07 00:35:34 r, 19.91m,0000000001Hz,0000500151c,0000001.085s, 013.8C,00002191
2016-04-07 00:45:34 r, 19.86m,0000000001Hz,0000477051c,0000001.035s, 013.8C,00002191
2016-04-07 00:55:34 r, 19.87m,0000000001Hz,0000480834c,0000001.043s, 013.8C,00002191
2016-04-07 01:05:34 r, 19.85m,0000000001Hz,0000474254c,0000001.029s, 013.8C,00002191
2016-04-07 01:15:34 r, 19.95m,0000000001Hz,0000521276c,0000001.131s, 013.8C,00002191
2016-04-07 01:25:36 r, 19.83m,0000000001Hz,0000464705c,0000001.008s, 013.8C,00002191
2016-04-07 01:35:34 r, 19.91m,0000000001Hz,0000501331c,0000001.088s, 013.8C,00002191
2016-04-07 01:45:34 r, 19.96m,0000000000Hz,0000522897c,0000001.135s, 013.8C,00002191
2016-04-07 01:55:34 r, 19.96m,0000000001Hz,0000524893c,0000001.139s, 013.8C,00002191
2016-04-07 02:05:34 r, 19.95m,0000000001Hz,0000518308c,0000001.125s, 013.8C,00002191
2016-04-07 02:15:34 r, 20.07m,0000000001Hz,0000579624c,0000001.258s, 013.8C,00002191
2016-04-07 02:25:35 r, 20.01m,0000000001Hz,0000551848c,0000001.198s, 013.8C,00002191
2016-04-07 02:35:34 r, 20.04m,0000000001Hz,0000568226c,0000001.233s, 013.8C,00002191
2016-04-07 02:45:34 r, 20.07m,0000000001Hz,0000582715c,0000001.265s, 013.8C,00002191
2016-04-07 02:55:34 r, 20.01m,0000000001Hz,0000549123c,0000001.192s, 013.8C,00002191
2016-04-07 03:05:34 r, 20.11m,0000000000Hz,0000604550c,0000001.312s, 013.8C,00002191
2016-04-07 03:15:34 r, 19.88m,0000000001Hz,0000488510c,0000001.060s, 013.8C,00002191
2016-04-07 03:25:35 r, 20.04m,0000000001Hz,0000567019c,0000001.231s, 013.8C,00002191
2016-04-07 03:35:34 r, 19.96m,0000000001Hz,0000526127c,0000001.142s, 013.8C,00002191
2016-04-07 03:45:34 r, 20.00m,0000000001Hz,0000543266c,0000001.179s, 013.8C,00002191
2016-04-07 03:55:34 r, 20.04m,0000000001Hz,0000566156c,0000001.229s, 013.8C,00002191
2016-04-07 04:05:34 r, 19.98m,0000000001Hz,0000532602c,0000001.156s, 013.8C,00002191
2016-04-07 04:15:34 r, 20.06m,0000000000Hz,0000575878c,0000001.250s, 013.8C,00002191
2016-04-07 04:25:34 r, 20.05m,0000000001Hz,0000571124c,0000001.239s, 013.8C,00002191
2016-04-07 04:35:34 r, 20.10m,0000000001Hz,0000596014c,0000001.293s, 013.8C,00002191
2016-04-07 04:45:34 r, 20.03m,0000000001Hz,0000557561c,0000001.210s, 013.8C,00002191
2016-04-07 04:55:35 r, 20.12m,0000000001Hz,0000606463c,0000001.316s, 013.8C,00002191
2016-04-07 05:05:34 r, 20.22m,0000000001Hz,0000663642c,0000001.440s, 013.8C,00002191
2016-04-07 05:15:34 r, 20.04m,0000000001Hz,0000568545c,0000001.234s, 013.8C,00002191
2016-04-07 05:25:34 r, 19.95m,0000000001Hz,0000519417c,0000001.127s, 013.8C,00002191
2016-04-07 05:35:34 r, 19.65m,0000000001Hz,0000393864c,0000000.855s, 013.8C,00002191
2016-04-07 05:45:34 r, 19.08m,0000000002Hz,0000232270c,0000000.504s, 013.8C,00002191
2016-04-07 05:55:34 r, 18.20m,0000000004Hz,0000104616c,0000000.227s, 013.8C,00002191
2016-04-07 06:05:34 r, 16.75m,0000000017Hz,0000027393c,0000000.059s, 013.8C,00002191
2016-04-07 06:15:34 r, 15.24m,0000000066Hz,0000006873c,0000000.015s, 013.8C,00002191
2016-04-07 06:25:35 r, 13.22m,0000000436Hz,0000000000c,0000000.000s, 013.8C,00002191
2016-04-07 06:35:34 r, 11.53m,0000002079Hz,0000000000c,0000000.000s, 013.8C,00002191
2016-04-07 06:45:35 r, 10.02m,0000008351Hz,0000000000c,0000000.000s, 013.5C,00002191
2016-04-07 06:55:34 r, 09.05m,0000020294Hz,0000000000c,0000000.000s, 013.5C,00002191
2016-04-07 07:05:34 r, 08.25m,0000042587Hz,0000000000c,0000000.000s, 013.8C,00002191
2016-04-07 07:15:34 r, 07.70m,0000070202Hz,0000000000c,0000000.000s, 013.5C,00002191
2016-04-07 07:25:34 r, 07.15m,0000117143Hz,0000000000c,0000000.000s, 013.5C,00002191
2016-04-07 07:35:34 r, 06.61m,0000191265Hz,0000000000c,0000000.000s, 013.5C,00002191
2016-04-07 07:45:34 r, 06.23m,0000273433Hz,0000000000c,0000000.000s, 013.8C,00002191
2016-04-07 07:55:34 r, 00.00m,0000422717Hz,0000000000c,0000000.000s, 013.8C,00002191
2016-04-07 08:05:34 r, 00.00m,0000469002Hz,0000000000c,0000000.000s, 013.8C,00002191
2016-04-07 08:15:34 r, 00.00m,0000590620Hz,0000000000c,0000000.000s, 013.8C,00002191
2016-04-07 08:25:34 r, 00.00m,0000596626Hz,0000000000c,0000000.000s, 013.8C,00002191
2016-04-07 08:35:34 r, 00.00m,0000596584Hz,0000000000c,0000000.000s, 013.8C,00002191
2016-04-07 08:45:34 r, 00.00m,0000596621Hz,0000000000c,0000000.000s, 013.8C,00002191
2016-04-07 08:55:34 r, 00.00m,0000596597Hz,0000000000c,0000000.000s, 013.8C,00002191
2016-04-07 09:05:34 r, 00.00m,0000596618Hz,0000000000c,0000000.000s, 014.1C,00002191
2016-04-07 09:15:34 r, 00.00m,0000596543Hz,0000000000c,0000000.000s, 014.1C,00002191
2016-04-07 09:25:34 r, 00.00m,0000596533Hz,0000000000c,0000000.000s, 014.1C,00002191
2016-04-07 09:35:34 r, 00.00m,0000596554Hz,0000000000c,0000000.000s, 014.1C,00002191
2016-04-07 09:45:34 r, 00.00m,0000596523Hz,0000000000c,0000000.000s, 014.1C,00002191
2016-04-07 09:55:36 r, 00.00m,0000596509Hz,0000000000c,0000000.000s, 014.5C,00002191
2016-04-07 10:05:34 r, 00.00m,0000596589Hz,0000000000c,0000000.000s, 014.5C,00002191
2016-04-07 10:15:34 r, 00.00m,0000596535Hz,0000000000c,0000000.000s, 014.5C,00002191
2016-04-07 10:25:35 r, 00.00m,0000596461Hz,0000000000c,0000000.000s, 014.8C,00002191
2016-04-07 10:35:34 r, 00.00m,0000596471Hz,0000000000c,0000000.000s, 014.8C,00002191
2016-04-07 10:45:34 r, 00.00m,0000596509Hz,0000000000c,0000000.000s, 014.8C,00002191
2016-04-07 10:55:34 r, 00.00m,0000596424Hz,0000000000c,0000000.000s, 015.1C,00002191
2016-04-07 11:05:34 r, 00.00m,0000596282Hz,0000000000c,0000000.000s, 016.1C,00002191
2016-04-07 11:15:34 r, 00.00m,0000596256Hz,0000000000c,0000000.000s, 016.1C,00002191
2016-04-07 11:25:34 r, 00.00m,0000596284Hz,0000000000c,0000000.000s, 016.1C,00002191
2016-04-07 11:35:34 r, 00.00m,0000596295Hz,0000000000c,0000000.000s, 016.7C,00002191
2016-04-07 11:45:34 r, 00.00m,0000596140Hz,0000000000c,0000000.000s, 017.4C,00002191
2016-04-07 11:55:35 r, 00.00m,0000596094Hz,0000000000c,0000000.000s, 018.0C,00002191
2016-04-07 12:05:34 r, 00.00m,0000596131Hz,0000000000c,0000000.000s, 017.7C,00002191
2016-04-07 12:15:34 r, 00.00m,0000596163Hz,0000000000c,0000000.000s, 017.7C,00002191
2016-04-07 12:25:35 r, 00.00m,0000595976Hz,0000000000c,0000000.000s, 018.3C,00002191
2016-04-07 12:35:34 r, 00.00m,0000595938Hz,0000000000c,0000000.000s, 019.3C,00002191
2016-04-07 12:45:34 r, 00.00m,0000595942Hz,0000000000c,0000000.000s, 019.6C,00002191
2016-04-07 12:55:34 r, 00.00m,0000595694Hz,0000000000c,0000000.000s, 019.9C,00002191
2016-04-07 13:05:34 r, 00.00m,0000595620Hz,0000000000c,0000000.000s, 021.2C,00002191
2016-04-07 13:15:34 r, 00.00m,0000595334Hz,0000000000c,0000000.000s, 023.5C,00002191
2016-04-07 13:25:34 r, 00.00m,0000595207Hz,0000000000c,0000000.000s, 025.4C,00002191
2016-04-07 13:35:34 r, 00.00m,0000595532Hz,0000000000c,0000000.000s, 022.5C,00002191
2016-04-07 13:45:34 r, 00.00m,0000595219Hz,0000000000c,0000000.000s, 024.4C,00002191
2016-04-07 13:55:34 r, 00.00m,0000595395Hz,0000000000c,0000000.000s, 023.8C,00002191
2016-04-07 14:05:34 r, 00.00m,0000595501Hz,0000000000c,0000000.000s, 023.5C,00002191
2016-04-07 14:15:34 r, 00.00m,0000595752Hz,0000000000c,0000000.000s, 021.5C,00002191
2016-04-07 14:25:34 r, 00.00m,0000595660Hz,0000000000c,0000000.000s, 020.9C,00002191
2016-04-07 14:35:34 r, 00.00m,0000595716Hz,0000000000c,0000000.000s, 021.2C,00002191
2016-04-07 14:45:34 r, 00.00m,0000595874Hz,0000000000c,0000000.000s, 020.3C,00002191
2016-04-07 14:55:34 r, 00.00m,0000596026Hz,0000000000c,0000000.000s, 019.3C,00002191
2016-04-07 15:05:34 r, 00.00m,0000595789Hz,0000000000c,0000000.000s, 020.6C,00002191
2016-04-07 15:15:34 r, 00.00m,0000595749Hz,0000000000c,0000000.000s, 020.3C,00002191
2016-04-07 15:25:34 r, 00.00m,0000595544Hz,0000000000c,0000000.000s, 021.9C,00002191
2016-04-07 15:35:34 r, 00.00m,0000595385Hz,0000000000c,0000000.000s, 024.1C,00002191
2016-04-07 15:45:34 r, 00.00m,0000595428Hz,0000000000c,0000000.000s, 023.5C,00002191
2016-04-07 15:55:34 r, 00.00m,0000595492Hz,0000000000c,0000000.000s, 023.2C,00002191
2016-04-07 16:05:36 r, 00.00m,0000595582Hz,0000000000c,0000000.000s, 021.9C,00002191
2016-04-07 16:15:34 r, 00.00m,0000595733Hz,0000000000c,0000000.000s, 020.9C,00002191
2016-04-07 16:25:34 r, 00.00m,0000595724Hz,0000000000c,0000000.000s, 020.9C,00002191
2016-04-07 16:35:34 r, 00.00m,0000595683Hz,0000000000c,0000000.000s, 020.9C,00002191
2016-04-07 16:45:34 r, 00.00m,0000595590Hz,0000000000c,0000000.000s, 021.2C,00002191
2016-04-07 16:55:34 r, 00.00m,0000595379Hz,0000000000c,0000000.000s, 023.2C,00002191
2016-04-07 17:05:35 r, 00.00m,0000595197Hz,0000000000c,0000000.000s, 024.8C,00002191
2016-04-07 17:15:34 r, 00.00m,0000595174Hz,0000000000c,0000000.000s, 026.4C,00002191
2016-04-07 17:25:34 r, 00.00m,0000595202Hz,0000000000c,0000000.000s, 025.4C,00002191
2016-04-07 17:35:34 r, 00.00m,0000595609Hz,0000000000c,0000000.000s, 021.9C,00002191
2016-04-07 17:45:34 r, 00.00m,0000595802Hz,0000000000c,0000000.000s, 020.3C,00002191
2016-04-07 17:55:34 r, 00.00m,0000595736Hz,0000000000c,0000000.000s, 019.6C,00002191
2016-04-07 18:05:34 r, 00.00m,0000595853Hz,0000000000c,0000000.000s, 019.6C,00002191
2016-04-07 18:15:34 r, 00.00m,0000595802Hz,0000000000c,0000000.000s, 020.6C,00002191
2016-04-07 18:25:34 r, 00.00m,0000595820Hz,0000000000c,0000000.000s, 019.9C,00002191
2016-04-07 18:35:35 r, 00.00m,0000596015Hz,0000000000c,0000000.000s, 018.6C,00002191
2016-04-07 18:45:34 r, 00.00m,0000595877Hz,0000000000c,0000000.000s, 019.0C,00002191
2016-04-07 18:55:34 r, 00.00m,0000595772Hz,0000000000c,0000000.000s, 019.9C,00002191
2016-04-07 19:05:34 r, 00.00m,0000595858Hz,0000000000c,0000000.000s, 019.6C,00002191
2016-04-07 19:15:34 r, 00.00m,0000595894Hz,0000000000c,0000000.000s, 018.6C,00002191
2016-04-07 19:25:34 r, 00.00m,0000520576Hz,0000000000c,0000000.000s, 018.0C,00002191
2016-04-07 19:35:34 r, 05.82m,0000398141Hz,0000000000c,0000000.000s, 016.4C,00002191
2016-04-07 19:45:34 r, 06.16m,0000292812Hz,0000000000c,0000000.000s, 015.1C,00002191
2016-04-07 19:55:34 r, 06.62m,0000189889Hz,0000000000c,0000000.000s, 013.8C,00002191
2016-04-07 20:05:34 r, 07.32m,0000100130Hz,0000000000c,0000000.000s, 012.8C,00002191
2016-04-07 20:15:34 r, 08.23m,0000043165Hz,0000000000c,0000000.000s, 012.2C,00002191
2016-04-07 20:25:34 r, 09.65m,0000011612Hz,0000000000c,0000000.000s, 011.9C,00002191
2016-04-07 20:35:34 r, 11.87m,0000001512Hz,0000000000c,0000000.000s, 011.6C,00002191
2016-04-07 20:45:34 r, 13.74m,0000000270Hz,0000000000c,0000000.000s, 011.9C,00002191
2016-04-07 20:55:34 r, 15.59m,0000000048Hz,0000009511c,0000000.021s, 011.6C,00002191
2016-04-07 21:05:34 r, 17.26m,0000000010Hz,0000043796c,0000000.095s, 011.6C,00002191
2016-04-07 21:15:34 r, 18.48m,0000000004Hz,0000134363c,0000000.292s, 011.6C,00002191
2016-04-07 21:25:34 r, 19.30m,0000000002Hz,0000286079c,0000000.621s, 011.6C,00002191
2016-04-07 21:35:35 r, 20.23m,0000000001Hz,0000669812c,0000001.454s, 011.6C,00002191
2016-04-07 21:45:34 r, 20.41m,0000000001Hz,0000787854c,0000001.710s, 011.6C,00002191
2016-04-07 21:55:34 r, 19.80m,0000000001Hz,0000450973c,0000000.979s, 011.6C,00002191
2016-04-07 22:05:35 r, 20.70m,0000000001Hz,0001030744c,0000002.237s, 011.6C,00002191
2016-04-07 22:15:34 r, 20.13m,0000000001Hz,0000613178c,0000001.331s, 011.6C,00002191
2016-04-07 22:25:34 r, 19.74m,0000000001Hz,0000428952c,0000000.931s, 011.6C,00002191
2016-04-07 22:35:35 r, 19.84m,0000000001Hz,0000468318c,0000001.016s, 011.6C,00002191
2016-04-07 22:45:34 r, 20.50m,0000000001Hz,0000853661c,0000001.853s, 011.2C,00002191
2016-04-07 22:55:34 r, 20.30m,0000000001Hz,0000712086c,0000001.545s, 010.9C,00002191
2016-04-07 23:05:34 r, 20.48m,0000000001Hz,0000842020c,0000001.827s, 010.9C,00002191
2016-04-07 23:15:34 r, 20.47m,0000000001Hz,0000832528c,0000001.807s, 010.6C,00002191
2016-04-07 23:25:34 r, 20.51m,0000000000Hz,0000866883c,0000001.881s, 010.3C,00002191
2016-04-07 23:35:35 r, 20.50m,0000000001Hz,0000859952c,0000001.866s, 009.9C,00002191
2016-04-07 23:45:34 r, 20.35m,0000000001Hz,0000748739c,0000001.625s, 009.6C,00002191
2016-04-07 23:55:34 r, 20.38m,0000000001Hz,0000769932c,0000001.671s, 009.3C,00002191
